Okmulgee, OK

1:51 AM CDT on September 25, 2016 (GMT -0500)
Okmulgee Regional

Weather History for KOKM - April, 2013

Change the Weather History Date:

Monday, April 22, 2013

  Actual Average (KMKO) Record (KMKO)
Temperature  
Mean Temperature 58 °F -  
Max Temperature 75 °F 70 °F 89 °F (2009)
Min Temperature 42 °F 49 °F 42 °F (1998)
Degree Days  
Heating Degree Days 6    
Growing Degree Days 8 (Base 50)    
Moisture  
Dew Point 47 °F    
Average Humidity 62    
Maximum Humidity 93    
Minimum Humidity 41    
Precipitation  
Precipitation 0.00 in - - ()
Sea Level Pressure  
Sea Level Pressure 29.99 in    
Wind  
Wind Speed 7 mph (SSE)    
Max Wind Speed 22 mph    
Max Gust Speed 29 mph    
Visibility 10 miles    
Events      
Averages and records for this station are not official NWS values.
T = Trace of Precipitation, MM = Missing Value Source: NWS Daily Summary

Daily Weather History Graph

Daily Weather History Graph

Search for Another Location

Airport or City:

Trip Planner

Search our weather history database for the weather conditions in past years. The results will help you decide how hot, cold, wet, or windy it might be!

Date:

Astronomy

Apr. 22, 2013 Rise Set
Actual Time 6:41 AM CDT 8:03 PM CDT
Civil Twilight 6:15 AM CDT 8:29 PM CDT
Nautical Twilight 5:43 AM CDT 9:01 PM CDT
Astronomical Twilight 5:09 AM CDT 9:35 PM CDT
Moon 4:58 PM CDT (4/22) 4:30 AM CDT (4/22)
Length of Visible Light 14h 14m
Length of Day
13h 21m
Waxing Gibbous, 88% of the Moon is Illuminated
Apr 22
Waxing Gibbous
Apr 25
Full
May 2
Last Quarter
May 9
New
May 17
First Quarter

Hourly Weather History & Observations

Time (CDT) Temp. Windchill Dew Point Humidity Pressure Visibility Wind Dir Wind Speed Gust Speed Precip Events Conditions
12:15 AM 50.9 °F - 44.8 °F 80% 30.15 in 10.0 mi Calm Calm - N/A   Clear
12:35 AM 50.5 °F - 44.6 °F 80% 30.14 in 10.0 mi Calm Calm - N/A   Clear
12:55 AM 50.0 °F - 44.6 °F 82% 30.14 in 10.0 mi Calm Calm - N/A   Clear
1:15 AM 49.1 °F - 43.7 °F 82% 30.13 in 10.0 mi Calm Calm - N/A   Clear
1:35 AM 49.5 °F - 43.3 °F 79% 30.13 in 10.0 mi Calm Calm - N/A   Clear
1:55 AM 50.0 °F - 42.8 °F 76% 30.12 in 10.0 mi Calm Calm - N/A   Clear
2:15 AM 49.3 °F - 43.5 °F 81% 30.11 in 10.0 mi Calm Calm - N/A   Clear
2:35 AM 46.6 °F - 43.0 °F 87% 30.10 in 10.0 mi ENE 4.6 mph - N/A   Clear
2:55 AM 47.3 °F - 43.0 °F 85% 30.09 in 10.0 mi East 8.1 mph - N/A   Clear
3:15 AM 47.3 °F - 43.3 °F 86% 30.09 in 10.0 mi ESE 5.8 mph - N/A   Clear
3:35 AM 48.2 °F - 43.3 °F 83% 30.09 in 10.0 mi ESE 4.6 mph - N/A   Clear
3:55 AM 47.8 °F - 42.6 °F 82% 30.08 in 10.0 mi North - - N/A   Clear
4:15 AM 47.8 °F - 42.4 °F 82% 30.08 in 10.0 mi SE 4.6 mph - N/A   Clear
4:35 AM 45.3 °F - 41.9 °F 88% 30.09 in 10.0 mi Calm Calm - N/A   Clear
4:55 AM 45.9 °F - 41.9 °F 86% 30.09 in 10.0 mi Calm Calm - N/A   Clear
5:15 AM 44.8 °F - 41.0 °F 87% 30.09 in 10.0 mi Calm Calm - N/A   Clear
5:35 AM 44.2 °F 42.7 °F 40.8 °F 88% 30.09 in 10.0 mi East 3.5 mph - N/A   Clear
5:55 AM 42.1 °F 40.2 °F 40.1 °F 93% 30.09 in 10.0 mi NNE 3.5 mph - N/A   Clear
6:15 AM 43.7 °F 42.1 °F 41.0 °F 90% 30.09 in 10.0 mi NNE 3.5 mph - N/A   Clear
6:35 AM 43.3 °F - 40.5 °F 90% 30.09 in 10.0 mi North - - N/A   Clear
6:55 AM 42.4 °F - 40.1 °F 91% 30.09 in 10.0 mi North - - N/A   Clear
7:15 AM 43.7 °F 42.1 °F 41.0 °F 90% 30.10 in 10.0 mi NE 3.5 mph - N/A   Clear
7:35 AM 46.0 °F - 42.4 °F 87% 30.10 in 10.0 mi Calm Calm - N/A   Clear
7:55 AM 47.7 °F - 42.4 °F 82% 30.10 in 10.0 mi Calm Calm - N/A   Clear
8:15 AM 49.1 °F - 44.1 °F 83% 30.10 in 10.0 mi Calm Calm - N/A   Clear
8:35 AM 51.4 °F - 44.8 °F 78% 30.10 in 10.0 mi SE 4.6 mph - N/A   Clear
9:15 AM 57.2 °F - 45.5 °F 65% 30.09 in 10.0 mi SE 8.1 mph - N/A   Clear
9:35 AM 59.0 °F - 43.5 °F 56% 30.09 in 10.0 mi SSE 13.8 mph 17.3 mph N/A   Clear
9:55 AM 60.8 °F - 43.7 °F 53% 30.08 in 10.0 mi SSE 13.8 mph 17.3 mph N/A   Clear
10:15 AM 63.0 °F - 43.3 °F 49% 30.07 in 10.0 mi SSE 13.8 mph 20.7 mph N/A   Clear
10:35 AM 63.7 °F - 43.5 °F 48% 30.06 in 10.0 mi SE 12.7 mph 21.9 mph N/A   Clear
10:55 AM 65.3 °F - 43.7 °F 46% 30.06 in 10.0 mi SSE 13.8 mph 23.0 mph N/A   Clear
11:15 AM 66.6 °F - 43.3 °F 43% 30.05 in 10.0 mi South 17.3 mph 26.5 mph N/A   Clear
11:35 AM 67.3 °F - 43.9 °F 43% 30.04 in 10.0 mi South 16.1 mph 27.6 mph N/A   Clear
11:55 AM 68.4 °F - 45.5 °F 44% 30.03 in 10.0 mi SSE 18.4 mph 25.3 mph N/A   Scattered Clouds
12:15 PM 69.4 °F - 45.0 °F 41% 30.01 in 10.0 mi SSE 17.3 mph 26.5 mph N/A   Scattered Clouds
12:35 PM 70.5 °F - 46.0 °F 42% 30.00 in 10.0 mi South 19.6 mph 27.6 mph N/A   Clear
12:55 PM 69.6 °F - 46.6 °F 44% 29.98 in 10.0 mi South 18.4 mph 28.8 mph N/A   Scattered Clouds
1:15 PM 71.1 °F - 46.8 °F 42% 29.97 in 10.0 mi South 20.7 mph 28.8 mph N/A   Scattered Clouds
1:35 PM 72.0 °F - 48.0 °F 43% 29.95 in 10.0 mi SSE 17.3 mph 28.8 mph N/A   Scattered Clouds
1:55 PM 70.9 °F - 47.5 °F 43% 29.94 in 10.0 mi South 16.1 mph 28.8 mph N/A   Mostly Cloudy
2:15 PM 73.4 °F - 49.6 °F 43% 29.93 in 10.0 mi South 18.4 mph 24.2 mph N/A   Mostly Cloudy
2:35 PM 73.6 °F - 49.6 °F 43% 29.92 in 10.0 mi South 21.9 mph 27.6 mph N/A   Scattered Clouds
2:55 PM 73.6 °F - 50.0 °F 43% 29.91 in 10.0 mi South 17.3 mph 28.8 mph N/A   Clear
3:15 PM 73.8 °F - 50.5 °F 44% 29.90 in 10.0 mi South 17.3 mph 27.6 mph N/A   Clear
3:35 PM 74.1 °F - 51.3 °F 45% 29.89 in 10.0 mi South 17.3 mph 24.2 mph N/A   Clear
3:55 PM 75.0 °F - 51.6 °F 44% 29.88 in 10.0 mi South 19.6 mph 25.3 mph N/A   Clear
4:15 PM 74.7 °F - 52.2 °F 45% 29.88 in 10.0 mi South 19.6 mph 28.8 mph N/A   Clear
4:35 PM 75.4 °F - 52.3 °F 44% 29.87 in 10.0 mi South 21.9 mph 27.6 mph N/A   Clear
4:55 PM 75.0 °F - 51.8 °F 44% 29.86 in 10.0 mi South 19.6 mph 25.3 mph N/A   Clear
5:15 PM 75.2 °F - 52.0 °F 44% 29.85 in 10.0 mi SSE 18.4 mph 26.5 mph N/A   Clear
5:35 PM 75.2 °F - 52.0 °F 44% 29.85 in 10.0 mi South 17.3 mph 25.3 mph N/A   Clear
5:55 PM 74.3 °F - 52.0 °F 46% 29.85 in 10.0 mi South 18.4 mph 25.3 mph N/A   Clear
6:15 PM 73.9 °F - 52.0 °F 46% 29.85 in 10.0 mi South 15.0 mph 27.6 mph N/A   Clear
6:35 PM 74.1 °F - 52.5 °F 47% 29.85 in 10.0 mi South 11.5 mph 24.2 mph N/A   Clear
6:55 PM 73.6 °F - 52.2 °F 47% 29.85 in 10.0 mi South 18.4 mph 26.5 mph N/A   Clear
7:15 PM 72.5 °F - 52.2 °F 49% 29.85 in 10.0 mi SSE 13.8 mph 26.5 mph N/A   Scattered Clouds
7:35 PM 71.8 °F - 52.3 °F 50% 29.86 in 10.0 mi SSE 8.1 mph 25.3 mph N/A   Scattered Clouds
7:55 PM 70.5 °F - 51.3 °F 50% 29.87 in 10.0 mi SSE 11.5 mph 20.7 mph N/A   Mostly Cloudy
8:15 PM 69.8 °F - 51.1 °F 51% 29.87 in 10.0 mi SSE 10.4 mph 17.3 mph N/A   Mostly Cloudy
8:35 PM 69.8 °F - 50.9 °F 51% 29.89 in 10.0 mi SSE 8.1 mph 16.1 mph N/A   Overcast
8:55 PM 69.1 °F - 51.1 °F 53% 29.88 in 10.0 mi SSE 9.2 mph - N/A   Overcast
9:15 PM 69.1 °F - 50.7 °F 52% 29.87 in 10.0 mi SSE 10.4 mph 17.3 mph N/A   Overcast
9:35 PM 68.2 °F - 50.7 °F 54% 29.88 in 10.0 mi SSE 11.5 mph 19.6 mph N/A   Overcast
9:55 PM 67.6 °F - 50.7 °F 55% 29.88 in 10.0 mi SSE 6.9 mph - N/A   Mostly Cloudy
10:15 PM 66.7 °F - 50.5 °F 56% 29.89 in 10.0 mi SSE 9.2 mph - N/A   Mostly Cloudy
10:35 PM 67.6 °F - 49.6 °F 52% 29.89 in 10.0 mi SSE 11.5 mph 19.6 mph N/A   Overcast
10:55 PM 66.9 °F - 50.2 °F 55% 29.89 in 10.0 mi SSE 9.2 mph - N/A   Overcast
11:15 PM 66.4 °F - 50.2 °F 56% 29.90 in 10.0 mi South 5.8 mph - N/A   Overcast
11:35 PM 65.5 °F - 50.9 °F 59% 29.91 in 10.0 mi Calm Calm - N/A   Overcast
11:55 PM 64.9 °F - 51.1 °F 61% 29.91 in 10.0 mi SSE 9.2 mph - N/A   Overcast